Theta_e
303 296 295 294 297 300 302 302 302 304 304 304 304 304 303 302 304 307 308 312 317 316 315 316 317 316 316 318 325 330 331 330 329 328 328 329 329 330 330 330 331 332 334 338 339 341 342 343 344 345 345 344 345 345 346 346 345 346 346 347 346 348 348 348 346 346 345 343 343 344 344 345 348 348 347 348 350 353 354 355 355 355 355 354 355 358
303 295 296 298 299 301 303 305 305 304 304 303 301 301 302 303 303 308 308 312 314 314 312 316 316 315 316 319 324 329 329 327 328 328 328 328 329 330 330 330 331 332 335 336 337 340 341 342 343 345 345 346 343 344 345 345 345 345 346 346 347 348 347 347 347 346 346 346 345 344 344 346 347 347 347 345 347 352 354 355 355 355 355 354 354 358
297 294 297 300 303 305 305 305 304 304 303 301 300 300 299 300 304 307 308 310 313 313 308 313 314 314 317 320 324 327 328 329 330 330 329 329 329 329 330 330 331 332 332 334 335 338 340 341 343 344 345 345 345 344 345 346 345 345 345 346 347 348 347 347 348 347 346 346 347 346 345 347 347 349 350 348 348 352 353 354 355 356 355 355 354 356
294 298 300 302 304 304 303 304 303 303 303 301 298 297 298 302 300 299 307 308 310 311 307 310 312 313 317 321 324 328 329 329 331 331 331 331 329 329 330 331 331 331 331 332 333 336 339 340 341 343 344 345 345 345 345 346 345 346 346 345 346 347 347 347 348 350 348 348 348 347 348 348 349 348 350 349 350 349 350 352 355 356 355 355 355 355
298 301 305 305 305 305 303 303 302 301 300 301 301 299 299 300 302 302 302 306 309 309 311 310 310 309 313 315 319 325 330 329 330 331 330 331 332 332 333 333 333 332 332 332 333 335 337 339 339 341 343 345 344 345 345 346 346 346 346 346 346 347 347 347 349 349 349 349 347 347 348 350 348 348 348 347 346 347 349 351 352 355 356 355 355 355
301 305 306 305 304 305 304 302 302 302 299 301 303 302 302 302 302 303 305 304 301 301 306 308 301 301 309 315 318 323 325 325 328 328 328 329 331 331 330 331 333 334 334 333 333 334 336 338 339 341 342 343 343 344 346 347 347 347 347 347 347 348 348 347 347 349 349 348 346 345 344 343 344 344 344 344 345 345 346 348 352 355 357 356 355 355
302 306 304 304 303 303 303 303 303 303 300 297 301 305 303 303 302 302 303 303 296 295 302 310 300 295 305 311 315 320 322 323 326 326 328 329 330 330 331 331 332 333 333 334 335 335 335 337 338 339 341 342 342 344 347 347 347 348 347 347 348 348 348 348 347 349 351 348 347 346 345 345 345 344 345 347 348 347 346 350 351 353 356 356 355 356
304 304 303 303 303 302 302 301 304 303 300 298 305 304 303 302 301 301 301 301 298 304 305 305 306 299 298 308 316 319 320 321 322 324 326 328 329 330 331 332 332 333 334 334 334 335 335 336 337 337 340 342 343 344 346 346 347 347 347 347 348 348 349 348 348 348 350 348 347 346 345 346 345 345 345 346 347 346 348 350 351 352 354 356 356 356
304 302 303 301 301 301 300 304 306 305 302 301 303 304 302 302 302 302 301 299 300 299 296 300 306 299 298 307 316 318 316 318 319 322 324 326 328 330 331 332 333 333 334 334 334 334 335 335 336 338 339 342 343 344 345 346 346 347 347 348 348 348 349 349 348 348 349 350 348 347 346 345 347 346 346 347 346 345 349 349 350 351 353 355 355 356
306 305 304 304 302 299 303 306 307 307 302 304 303 305 305 304 303 302 300 299 299 297 294 298 302 296 293 300 310 316 315 316 318 321 323 326 327 329 330 331 333 334 334 335 335 335 336 337 337 338 339 340 342 344 346 346 347 347 347 347 347 347 349 349 348 349 349 349 350 347 346 345 345 347 345 345 344 344 346 347 349 351 351 353 354 354
305 311 310 306 303 304 304 306 307 308 308 306 306 303 302 302 302 302 301 300 297 292 295 300 302 300 293 299 308 310 313 317 319 321 323 325 327 329 331 331 332 333 334 335 335 336 336 338 338 338 338 339 341 343 344 345 346 346 346 346 346 347 349 349 349 349 348 349 349 347 346 345 345 345 344 343 343 343 343 344 347 349 351 352 353 354
306 307 306 307 310 308 307 305 308 309 309 307 302 302 299 298 298 296 298 299 292 290 296 300 300 302 293 294 304 315 319 320 320 319 320 322 325 327 329 331 332 333 334 335 335 335 336 336 337 338 337 338 339 341 342 344 345 346 346 346 346 347 348 349 349 349 349 349 349 349 347 346 346 345 345 343 343 343 343 343 344 348 350 350 352 352
300 303 307 308 313 308 305 304 304 307 308 306 302 300 295 289 292 289 290 290 290 289 293 297 299 295 297 300 304 313 318 320 322 322 322 323 324 326 328 330 332 333 334 334 335 335 335 335 336 336 337 338 338 339 341 343 344 345 345 345 345 345 348 348 349 349 349 349 349 349 348 347 347 346 346 345 344 344 343 343 343 346 348 349 350 351
295 303 306 307 307 311 308 300 298 299 304 304 301 297 293 289 287 285 286 286 288 292 298 298 298 295 296 301 307 312 317 321 322 323 324 324 324 326 327 329 331 332 333 334 335 335 335 335 336 336 337 338 338 339 340 342 343 344 345 345 345 345 347 348 348 349 348 349 349 349 349 348 348 346 346 346 345 345 345 345 344 345 348 349 350 351
288 291 299 305 302 309 308 306 304 301 303 303 306 300 298 294 290 286 286 287 288 287 295 300 294 290 296 297 307 312 317 320 323 324 324 325 326 327 328 329 330 331 332 334 335 335 335 335 336 337 337 338 339 339 340 341 343 343 344 344 345 345 347 348 348 349 348 349 349 349 349 349 348 347 347 347 347 346 345 345 344 344 347 349 350 351
291 292 299 307 306 308 306 309 308 304 302 306 307 305 297 297 297 290 288 287 288 289 290 291 291 293 299 301 307 313 315 318 321 321 323 323 325 326 326 327 327 329 331 333 334 335 335 336 336 337 338 338 339 339 340 341 342 343 343 344 345 345 346 348 349 348 349 349 349 349 349 348 349 349 348 347 348 347 346 346 346 344 346 349 350 352
289 290 299 300 308 307 308 309 308 307 296 302 304 299 302 303 301 295 297 296 294 290 292 293 293 294 296 300 301 305 311 314 317 318 320 321 323 324 325 326 327 328 330 332 334 335 335 336 336 337 338 339 339 340 340 341 342 343 343 344 344 345 346 347 349 349 349 349 349 349 349 349 348 348 347 346 347 348 347 346 347 346 346 348 350 351
285 286 294 295 294 306 310 309 309 309 303 300 298 302 302 305 303 297 290 291 288 285 287 290 292 291 293 292 302 302 304 309 313 315 317 319 322 323 325 327 328 328 330 332 334 336 336 336 337 337 338 339 340 340 341 341 342 343 344 344 343 345 344 347 348 349 349 349 348 348 349 349 348 348 348 347 347 348 347 346 347 348 347 347 350 352
292 285 293 298 298 300 307 307 304 308 309 304 302 306 302 293 294 295 293 288 285 284 284 286 290 293 294 294 298 299 301 302 306 312 315 317 320 322 324 327 328 329 330 331 333 334 335 336 336 337 337 339 340 342 342 343 343 343 344 344 344 344 345 346 348 349 350 350 349 349 349 349 348 348 348 348 348 348 348 347 347 347 349 348 350 352
293 288 291 299 298 300 300 303 296 299 305 308 304 304 304 298 298 293 295 291 290 284 286 286 289 289 296 296 299 302 302 303 302 308 313 316 319 322 324 326 328 329 330 331 332 334 336 336 337 337 338 338 340 341 342 343 343 343 343 344 344 345 346 346 347 349 348 349 349 349 349 349 349 349 348 348 347 347 347 349 348 347 348 349 351 351
289 295 284 293 298 299 293 298 299 300 297 299 299 298 300 299 298 299 295 292 292 283 282 283 286 290 293 298 300 302 303 303 303 307 313 316 318 321 324 326 328 329 330 331 333 334 336 336 337 338 338 339 341 342 343 343 343 343 344 344 345 344 344 345 346 347 348 349 349 349 347 348 348 348 348 347 348 347 347 348 350 349 349 349 350 352
289 290 285 290 290 291 294 300 300 300 300 298 299 298 300 297 293 292 291 294 291 290 283 283 286 290 295 303 303 303 304 304 303 306 312 317 319 321 324 326 327 329 330 331 333 335 336 337 337 338 339 339 340 341 341 343 344 344 344 344 345 345 345 345 346 347 348 349 349 348 348 348 348 348 348 348 347 348 348 348 349 350 350 348 350 352
294 292 290 286 289 291 296 300 303 303 302 301 300 298 301 298 295 293 288 289 293 292 295 290 287 292 300 303 305 306 306 306 306 304 309 316 319 321 324 326 327 329 330 331 333 335 336 337 338 338 338 338 339 340 341 342 343 344 344 345 345 345 345 346 346 348 348 348 348 348 348 348 348 348 348 348 348 348 348 349 349 351 351 350 350 352
302 291 286 287 290 293 297 300 301 302 302 300 300 300 300 298 299 298 295 291 293 291 293 291 289 291 297 303 304 305 306 306 307 304 307 314 319 322 323 325 327 328 330 332 333 335 336 337 338 338 338 338 339 339 340 342 343 344 345 345 346 345 346 346 347 347 348 348 348 348 348 348 348 348 348 347 348 348 349 349 350 352 352 352 351 351
289 291 287 282 283 289 294 298 298 301 300 297 296 298 300 302 301 297 296 294 294 292 295 289 287 293 300 311 308 308 306 305 305 304 307 311 318 321 323 324 327 328 329 330 332 333 335 336 336 337 338 338 339 340 341 342 342 343 344 346 346 346 347 347 348 347 348 348 348 348 348 347 348 348 348 348 348 348 349 349 350 351 351 352 352 352
292 290 286 279 277 280 284 284 286 287 290 293 296 299 300 300 299 296 293 292 291 293 294 291 291 293 298 301 302 302 304 305 306 305 308 312 317 321 323 324 326 328 328 330 331 332 334 335 337 337 337 338 339 340 341 342 343 344 345 346 347 347 348 348 349 348 348 348 348 348 348 348 348 348 348 348 348 349 349 350 350 350 351 352 352 353
291 292 289 286 283 282 285 286 291 294 291 288 291 293 293 296 300 299 294 290 291 290 292 294 296 297 299 302 302 302 302 303 304 303 306 310 316 321 323 325 327 328 329 329 331 333 334 335 336 337 337 338 339 340 341 342 343 344 345 346 347 348 349 349 349 349 348 348 348 348 348 348 348 348 348 349 349 350 350 350 350 350 349 351 352 353
293 287 288 289 288 289 290 290 292 293 289 290 290 291 294 296 298 297 295 294 294 291 290 294 296 296 299 301 302 303 302 305 303 303 306 311 316 321 323 325 333 328 329 330 331 332 333 334 336 336 337 338 338 340 342 343 343 344 345 346 347 349 349 350 349 349 349 348 348 348 349 349 349 349 349 350 350 350 350 350 350 350 350 350 349 350
289 285 289 290 289 291 292 292 293 293 292 292 293 293 294 297 298 296 298 296 297 295 293 295 296 296 300 302 304 303 303 306 304 304 307 312 318 321 323 324 326 327 328 329 330 332 333 334 335 336 337 337 338 339 341 342 343 344 345 347 348 349 350 351 350 349 349 349 348 348 349 350 350 351 350 350 350 350 350 350 350 350 350 350 350 350
292 287 289 290 289 289 290 291 292 291 291 293 293 294 295 297 298 299 298 298 298 297 298 298 297 298 301 303 303 303 303 307 311 313 310 312 316 320 322 323 325 326 327 328 330 331 333 334 335 336 337 337 337 338 340 341 342 343 344 345 348 349 351 351 350 350 349 349 349 350 350 350 350 350 350 350 349 349 350 350 350 350 350 350 350 350
291 287 293 290 286 287 290 292 293 293 293 292 298 302 303 302 301 301 299 299 300 299 300 297 298 299 301 302 306 307 309 313 318 316 312 314 317 320 321 323 325 326 327 329 330 331 333 334 335 336 336 337 337 338 339 341 342 343 344 345 347 348 351 352 350 350 350 350 350 350 350 350 350 350 349 350 350 349 349 349 350 350 349 350 350 350
292 287 291 288 283 284 289 290 290 293 294 294 299 300 301 302 298 297 297 304 298 297 301 300 296 297 300 306 309 312 314 313 311 310 313 313 318 321 321 323 324 325 327 328 330 331 332 333 333 334 336 337 338 339 339 340 342 343 343 344 346 348 351 351 351 351 350 351 351 351 351 351 350 350 350 350 349 349 349 349 349 349 349 349 349 350
290 288 285 285 282 282 288 290 290 292 294 294 296 299 300 306 309 310 311 313 311 310 298 297 297 301 302 310 314 321 327 327 328 327 316 315 316 321 321 323 324 325 327 328 329 331 331 333 333 334 336 337 338 339 340 341 341 342 343 344 346 349 350 350 351 351 351 352 352 352 352 351 351 351 350 350 350 350 350 349 348 348 348 348 349 350
291 289 286 289 281 283 287 288 292 293 288 288 300 304 302 305 311 308 308 311 312 313 307 308 308 311 311 316 321 324 327 327 328 330 330 319 315 318 321 323 324 326 327 328 329 330 331 333 334 335 336 337 339 340 341 342 342 343 344 346 347 348 349 350 351 351 351 352 352 352 352 352 351 351 351 351 351 351 350 349 348 349 349 349 349 348
289 289 287 287 283 281 286 289 293 288 289 302 306 305 304 305 306 311 312 312 312 314 315 314 314 320 324 326 327 327 328 329 331 331 332 333 330 322 321 323 321 323 324 325 326 328 329 332 333 334 335 336 338 339 340 341 343 344 345 346 346 347 349 351 351 352 352 352 353 353 353 352 352 351 352 352 352 351 350 350 349 349 349 349 348 348
289 288 288 286 286 287 287 284 285 288 299 304 305 304 305 306 304 306 311 312 313 313 314 314 316 319 320 323 327 328 328 331 332 332 333 335 336 333 332 331 330 328 327 327 327 328 330 332 333 334 335 339 340 339 340 341 343 344 345 346 346 347 348 350 352 352 353 353 353 353 354 353 352 352 352 352 352 351 350 350 350 349 350 349 349 349
292 290 289 283 287 281 284 283 285 295 299 302 299 299 300 298 300 299 302 310 314 314 314 315 317 319 321 322 322 326 327 330 328 329 333 335 336 339 339 339 340 340 341 340 340 338 338 338 338 341 342 339 339 339 339 341 343 344 344 345 346 347 347 348 350 353 354 354 354 355 355 355 354 353 352 352 352 351 351 350 350 350 351 349 349 348
294 288 291 283 285 290 281 281 283 288 287 294 299 302 304 305 305 305 303 309 315 314 316 316 317 318 320 323 324 324 324 325 322 324 331 335 337 338 342 344 346 346 346 346 347 347 347 347 348 350 348 348 349 347 342 343 343 343 343 344 345 346 347 347 347 350 354 355 356 356 356 356 355 354 354 353 352 351 352 352 352 351 351 350 349 348
294 294 291 286 284 285 283 281 282 282 289 297 298 300 304 306 306 306 305 305 313 312 315 316 319 320 321 322 324 326 324 320 320 325 331 334 335 337 338 340 343 345 346 346 346 346 347 347 349 350 351 351 351 352 354 346 345 344 344 345 345 347 347 347 348 349 351 355 357 358 358 357 357 356 355 354 353 353 352 352 352 352 352 351 350 350
291 291 290 285 284 285 284 282 280 289 286 296 299 302 304 307 308 305 298 300 310 313 314 316 320 320 321 323 325 324 323 319 321 326 332 334 336 337 337 338 339 341 342 344 346 347 348 349 348 348 349 349 350 353 356 356 349 347 346 346 346 346 347 348 350 351 352 354 356 358 358 358 358 357 356 355 354 354 354 354 353 352 352 351 351 350
288 290 289 282 283 286 286 284 290 289 298 301 302 305 308 310 308 298 292 301 311 312 314 316 319 321 322 322 323 320 323 325 327 329 331 332 333 334 337 339 340 342 342 344 346 350 345 345 345 345 345 346 350 354 356 357 355 354 354 351 350 351 354 350 344 348 352 352 354 356 358 358 358 357 357 357 356 355 355 354 353 352 351 351 351 350
290 291 291 290 284 282 284 284 287 291 298 303 305 308 310 307 296 293 305 312 312 310 314 314 313 318 323 322 322 323 324 327 328 328 329 329 330 331 334 336 338 341 344 347 349 346 344 344 344 344 345 345 347 350 352 353 352 350 349 349 349 351 356 356 354 350 346 350 351 353 355 357 358 359 359 358 357 355 354 354 354 353 352 351 351 349
288 287 283 286 291 290 291 289 287 283 296 304 306 307 308 300 300 309 312 312 312 310 310 310 310 311 316 322 323 323 324 325 326 326 327 328 329 329 330 332 334 336 338 341 342 344 343 341 342 343 343 345 345 346 348 349 348 347 346 345 346 350 352 354 353 351 345 345 349 351 353 355 356 357 359 358 358 356 354 354 354 353 352 351 350 349
295 287 286 289 295 287 287 285 285 295 300 308 304 297 304 307 311 311 310 306 310 309 308 309 309 310 310 314 322 323 324 324 324 325 326 327 328 329 330 331 333 335 338 340 342 342 342 340 341 341 342 343 344 344 344 345 345 346 344 342 346 348 351 352 353 351 342 344 346 350 351 353 355 357 358 358 357 356 355 354 354 353 352 351 350 349
295 292 295 287 296 291 289 292 298 304 306 308 306 305 305 307 310 311 312 308 307 308 310 308 308 311 310 310 317 322 322 324 324 325 324 325 327 328 328 329 331 333 335 337 339 341 341 340 339 340 340 341 341 342 342 342 343 344 341 341 345 347 347 350 354 354 348 342 344 348 351 351 353 354 356 357 357 355 355 353 353 352 352 352 350 350
300 301 300 298 292 298 302 301 303 303 305 304 307 307 304 305 307 308 309 309 308 309 310 307 309 311 311 311 310 316 321 322 323 324 325 325 325 327 329 330 331 332 335 337 338 339 339 340 339 339 338 338 339 340 341 340 340 338 337 341 344 345 345 349 353 354 355 348 342 346 351 351 351 352 354 355 356 356 355 355 354 353 353 352 352 351
299 299 298 291 293 291 289 301 298 299 302 303 306 306 307 306 305 306 306 307 311 311 311 309 310 311 312 312 311 310 315 320 321 323 325 325 326 325 326 328 329 330 331 332 335 338 337 337 337 338 338 337 336 338 339 338 339 337 338 339 340 343 344 348 352 354 354 352 345 344 349 351 352 352 353 354 354 355 356 355 354 353 352 353 352 351
292 300 295 292 292 292 292 298 297 298 302 305 305 304 304 304 304 304 305 306 309 310 312 312 311 311 312 312 312 309 311 316 319 321 324 325 325 326 326 326 328 331 332 332 334 336 335 335 335 336 336 335 335 336 337 337 337 337 337 338 339 340 342 346 350 352 351 352 346 346 349 350 360 356 353 354 355 354 354 354 355 354 353 353 353 353
295 298 288 292 290 293 296 298 296 297 302 304 305 305 306 305 305 305 304 305 306 309 310 312 309 310 312 312 312 310 309 311 317 320 323 324 325 326 327 327 327 328 330 332 333 336 335 335 335 334 335 334 334 335 335 334 335 337 336 337 338 339 339 342 349 350 348 346 347 348 350 350 357 353 344 330 317 309 308 313 324 345 351 332 336 356
293 289 293 292 288 287 290 292 294 289 290 297 302 303 304 305 304 305 305 304 304 307 309 312 309 309 310 312 312 310 308 309 312 317 322 324 324 325 327 327 327 327 330 332 333 333 335 337 334 334 334 333 333 334 335 334 335 335 337 337 337 337 337 340 344 344 346 345 347 349 352 352 349 342 337 332 325 320 317 310 301 303 320 326 319 309
291 292 291 288 287 287 293 295 296 296 295 296 298 300 303 304 304 303 304 303 303 306 310 313 309 308 308 309 311 310 308 308 309 315 321 323 324 326 328 327 328 328 329 331 332 331 331 331 335 334 333 332 334 334 334 334 334 334 336 337 338 337 336 337 340 342 343 343 346 350 353 348 344 339 335 332 330 328 326 323 316 301 299 305 306 301
Wind_Speed
5 9 13 17 22 22 14 10 8 5 6 1 4 6 8 6 7 5 5 4 6 8 11 14 14 11 10 15 17 19 17 15 14 16 15 15 15 16 16 16 16 17 17 15 17 17 17 17 15 15 14 14 15 14 15 15 15 15 14 13 14 12 12 10 9 9 9 9 8 7 9 10 8 8 6 6 6 6 6 6 7 7 7 6 6 5
8 10 14 21 13 7 7 5 5 6 9 9 4 3 7 7 10 9 6 3 3 6 8 10 12 11 11 13 16 16 18 18 18 18 18 18 17 17 19 19 18 16 9 12 13 15 16 15 16 15 14 15 16 15 16 17 17 15 15 15 14 11 12 13 12 11 10 10 10 11 11 9 8 7 8 7 6 6 6 6 7 7 7 7 7 6
11 15 22 16 4 4 4 5 6 11 11 6 7 5 4 8 3 7 6 4 2 7 6 6 10 11 12 14 15 18 20 18 19 21 21 20 19 17 18 19 18 13 13 14 15 16 16 18 18 15 15 15 17 17 17 17 16 16 15 14 13 12 13 13 12 11 11 10 9 9 8 10 6 6 6 5 5 5 6 6 7 6 6 7 6 6
8 16 18 7 6 4 5 6 6 8 8 9 6 6 11 4 2 6 10 5 4 5 2 7 10 9 9 9 16 19 20 17 19 21 20 20 21 20 21 21 19 19 17 17 17 18 18 18 17 16 16 16 16 15 15 16 17 15 14 14 14 13 13 12 13 12 11 10 7 6 4 5 5 4 4 4 4 5 5 7 7 6 6 7 7 7
13 3 9 6 10 11 10 7 8 8 10 9 9 9 10 7 10 10 3 3 1 4 3 1 4 2 5 8 8 12 14 15 17 17 16 17 18 21 18 16 17 21 21 19 17 17 18 19 19 19 18 16 16 16 16 17 16 13 18 16 16 14 14 13 13 13 10 8 5 5 3 3 2 2 3 3 3 6 7 6 7 8 7 7 7 7
12 13 8 13 11 12 12 9 11 9 9 10 12 14 12 8 13 5 2 4 3 6 1 5 1 5 6 14 18 13 10 12 13 16 18 18 17 14 15 18 17 17 17 20 22 22 22 21 17 17 17 18 17 17 17 17 18 16 15 15 15 12 12 13 14 14 11 10 9 8 8 7 7 7 7 9 11 8 8 10 7 6 8 7 7 6
10 8 6 15 14 10 13 13 9 9 10 7 15 15 13 12 13 2 1 1 5 6 5 4 8 5 3 13 14 12 17 19 13 17 19 18 17 16 17 17 17 18 17 16 16 16 17 18 18 18 19 20 19 18 16 16 17 17 15 15 16 14 13 13 13 14 11 10 9 11 12 12 12 11 9 9 8 8 6 4 7 7 7 7 8 7
7 11 8 8 14 15 12 13 12 12 9 14 15 6 6 11 14 7 3 3 5 2 6 3 3 5 3 11 14 17 19 19 17 18 19 18 17 19 19 19 18 19 19 18 20 19 19 20 22 22 22 20 20 18 16 16 16 17 17 16 16 13 13 12 13 14 13 12 11 12 12 11 11 12 11 10 8 4 5 6 6 6 7 7 7 7
10 13 15 14 9 13 16 17 12 13 13 10 2 6 6 9 14 6 5 5 5 4 9 8 2 4 4 9 15 14 16 16 19 19 20 20 20 20 20 20 21 21 21 20 19 21 21 21 22 21 20 21 19 17 17 17 16 16 16 16 15 15 14 13 15 15 15 13 13 13 11 11 10 10 8 5 5 6 6 6 5 6 6 6 6 6
9 11 12 13 9 11 10 11 9 12 12 8 2 5 5 5 7 4 6 6 5 3 12 12 4 5 6 4 7 10 15 18 20 21 22 23 23 22 21 21 21 19 18 18 20 20 21 21 22 22 21 18 18 17 17 16 15 15 14 15 16 16 13 13 15 15 16 15 13 12 11 13 10 8 6 5 6 6 6 7 7 6 6 6 6 5
2 6 11 11 15 9 5 7 10 13 14 3 5 2 4 8 7 2 6 5 2 10 13 14 7 6 7 5 12 12 16 17 17 17 16 17 18 19 20 21 18 18 18 18 19 19 20 20 19 17 18 19 18 15 16 16 16 15 15 16 17 17 14 14 16 16 17 15 13 12 13 13 12 10 8 7 7 5 5 7 7 7 7 6 7 6
11 4 7 7 12 6 6 6 8 12 12 7 4 8 2 7 1 0 2 4 9 11 8 12 10 9 10 5 7 15 18 22 22 22 21 20 21 21 19 19 18 19 19 20 19 19 19 16 15 15 17 18 18 17 17 17 16 16 16 16 19 17 16 15 15 16 16 14 14 13 13 13 12 11 9 11 11 9 9 8 7 6 6 6 6 6
10 15 5 3 10 16 10 10 8 10 11 11 6 6 10 2 1 7 4 9 10 8 5 5 5 3 14 9 9 16 18 22 23 20 22 24 24 23 22 22 19 18 19 18 18 17 16 17 18 19 19 17 18 18 19 19 17 17 16 18 19 18 17 16 15 16 16 15 15 14 14 13 11 10 11 10 10 9 9 8 7 7 7 6 6 7
9 4 12 12 4 11 11 13 7 9 11 12 12 9 9 8 8 9 4 1 1 3 7 9 4 11 1 7 12 18 22 22 23 21 20 23 24 24 23 21 18 17 18 18 18 17 17 18 19 19 19 19 18 19 19 19 18 16 16 18 19 19 18 16 16 16 16 17 16 15 14 13 11 11 11 10 10 10 8 8 9 9 9 8 9 9
8 11 14 13 13 9 14 13 12 6 10 12 10 10 11 8 5 9 5 9 8 5 8 9 4 6 10 7 12 17 22 23 22 23 20 19 22 23 23 22 21 19 18 17 16 17 18 19 19 19 19 18 18 19 19 17 18 17 17 18 20 19 18 18 17 16 17 16 15 14 13 12 11 11 10 10 9 9 9 8 9 8 7 8 8 9
10 10 4 16 4 11 12 13 10 9 7 11 11 8 7 17 6 4 5 4 3 3 5 5 7 6 8 3 4 13 16 20 22 21 17 13 14 14 12 16 17 18 18 17 17 18 19 18 17 16 16 17 17 19 18 19 17 18 18 19 21 21 19 18 18 17 17 16 14 14 14 14 13 11 9 8 7 7 8 8 9 9 9 8 7 7
8 7 4 11 10 14 17 12 11 13 12 9 10 15 14 8 6 4 3 1 1 2 12 1 3 4 7 5 5 6 10 15 17 19 17 15 14 13 14 17 18 18 18 17 18 18 19 17 17 17 18 17 17 17 19 20 20 20 19 19 20 19 18 19 19 18 17 16 15 15 14 13 12 12 12 11 11 11 9 8 8 8 9 7 7 7
6 14 20 12 15 13 13 10 12 15 6 5 10 13 5 6 4 6 8 2 5 8 7 1 9 4 5 9 2 5 8 11 14 17 18 18 16 16 17 18 19 19 19 20 21 22 21 21 22 20 18 19 20 21 21 21 19 19 19 20 20 19 19 18 18 18 16 16 16 14 14 14 13 13 12 11 11 9 8 8 7 7 6 8 8 8
8 9 8 6 12 6 8 9 8 13 14 11 9 10 10 7 12 8 2 10 8 6 2 3 3 6 11 6 4 8 9 9 9 13 17 18 17 19 19 20 20 21 19 19 19 17 16 17 17 18 19 20 20 20 20 19 18 17 17 18 20 21 20 19 16 15 14 15 12 12 14 14 13 12 11 10 9 8 9 10 9 9 9 7 6 7
5 4 8 3 7 11 10 7 14 9 12 18 6 11 7 4 10 8 10 2 4 3 2 7 1 8 5 6 10 12 11 11 10 11 15 18 19 18 18 19 20 19 18 19 18 17 18 19 20 21 21 21 20 19 18 18 17 18 18 18 18 17 16 16 17 15 15 14 13 12 12 12 12 12 12 11 10 10 11 11 10 10 8 9 8 8
5 2 6 12 15 8 4 5 13 13 11 11 11 9 7 6 1 4 0 4 7 4 4 2 7 5 6 6 8 13 12 13 13 15 15 16 17 19 20 20 18 20 20 19 19 19 20 20 19 20 19 19 17 15 15 16 19 19 17 17 18 18 17 17 17 16 15 13 14 14 14 14 13 13 12 11 11 11 11 10 9 9 9 5 7 7
3 1 7 13 12 6 8 5 2 1 2 4 11 12 11 9 5 12 10 1 4 3 3 3 10 4 9 5 9 10 10 11 9 15 15 16 17 17 18 20 20 19 20 20 20 19 19 19 19 18 16 13 14 15 17 17 16 17 18 17 17 16 16 17 17 15 15 13 14 15 15 15 13 13 12 12 12 12 11 10 9 8 6 8 8 8
2 5 4 10 8 11 17 20 15 16 11 12 7 9 9 5 5 6 10 7 4 5 4 3 2 11 7 8 11 11 11 11 11 13 15 15 17 19 19 20 20 21 21 20 19 19 18 18 19 19 19 18 19 19 19 17 17 17 18 17 16 17 17 17 17 16 14 14 14 15 14 14 13 13 13 14 12 13 12 10 9 8 9 9 8 7
9 1 6 9 11 13 18 15 14 12 6 7 7 8 8 11 11 12 8 5 6 2 7 6 5 10 7 4 7 9 11 11 10 11 13 13 14 17 19 18 18 17 18 20 20 18 18 18 17 15 16 16 16 15 17 17 17 16 16 17 16 18 18 17 16 15 15 14 15 16 15 14 13 14 14 14 13 14 12 11 10 9 10 10 8 9
6 0 3 7 7 9 11 3 3 1 2 2 7 7 9 11 12 3 4 2 7 10 11 7 11 13 5 1 1 2 4 5 6 6 12 14 13 15 16 15 17 18 18 18 17 17 16 15 16 16 17 17 17 17 17 17 16 17 17 16 17 17 17 17 15 15 15 16 16 15 15 15 14 15 15 15 13 14 13 12 11 10 11 10 10 11
5 4 2 1 3 6 11 11 3 8 10 10 7 8 10 12 14 5 8 3 10 5 7 7 10 11 10 4 5 5 4 6 8 8 13 16 17 18 15 13 15 17 17 17 17 15 16 17 17 17 17 16 16 17 16 16 16 16 16 17 16 16 16 16 14 15 15 15 15 14 16 15 15 15 16 15 14 14 14 13 12 12 11 11 12 11
2 3 4 6 7 10 9 9 8 6 10 6 13 15 16 17 12 10 5 6 11 4 8 10 9 10 15 16 15 12 3 7 8 7 13 13 14 17 15 14 16 16 16 18 17 17 16 15 17 18 18 18 18 17 15 16 16 16 16 17 16 15 16 16 16 16 15 15 16 15 16 16 15 15 15 15 14 13 12 13 13 13 12 12 12 12
1 2 7 8 12 14 14 15 18 14 17 18 16 19 17 14 12 12 13 13 6 9 10 4 6 9 18 17 14 19 5 6 6 6 12 14 13 13 13 14 16 15 15 14 14 16 17 18 18 18 18 17 16 15 14 15 16 16 17 17 16 16 15 14 15 16 16 16 16 15 16 15 15 14 14 13 13 12 13 13 12 13 12 11 12 12
2 3 4 5 11 11 14 18 19 16 15 14 15 17 18 17 13 13 17 7 11 10 12 5 6 8 18 17 17 18 3 7 7 10 16 18 15 13 13 14 15 16 15 15 16 17 18 18 17 18 18 17 16 16 15 15 15 14 14 14 15 15 17 16 16 16 16 16 16 15 14 13 12 12 12 13 12 12 12 12 12 12 12 12 12 11
2 5 5 6 11 13 17 17 16 16 13 13 15 16 18 19 18 15 12 7 15 8 8 9 9 15 17 15 13 9 4 6 6 3 4 3 10 13 14 15 17 16 17 18 17 18 18 19 19 19 18 16 17 17 16 15 15 16 16 16 16 16 15 14 15 15 15 15 15 14 14 14 12 12 12 13 13 13 13 12 12 12 12 13 13 12
1 4 4 7 7 13 14 11 8 8 8 11 9 7 12 13 15 15 10 8 8 4 3 7 8 13 9 3 3 3 3 2 1 2 9 12 10 13 15 16 16 16 17 18 18 18 18 17 17 16 16 17 18 18 18 17 17 16 16 15 15 15 14 14 14 14 14 15 15 14 13 12 12 12 13 13 13 12 12 13 12 12 13 13 13 13
2 3 2 2 7 9 7 6 15 13 9 9 5 14 16 14 3 7 4 4 4 7 2 1 5 10 9 3 0 4 6 6 3 2 4 6 11 13 15 15 15 15 17 18 18 17 16 16 15 15 16 17 18 18 17 16 15 15 17 16 15 14 13 14 14 15 15 15 13 13 13 12 12 12 13 13 13 13 13 13 13 12 12 12 13 13
3 2 3 3 6 7 6 11 16 13 9 1 5 9 13 9 8 12 8 10 7 2 3 8 9 2 6 4 1 4 7 6 6 4 2 3 4 11 15 15 16 16 17 17 16 16 16 17 17 18 18 17 18 18 18 18 16 16 16 15 13 12 13 14 14 13 13 13 13 13 12 12 13 14 13 13 13 13 12 13 13 14 13 14 13 11
6 4 3 1 2 7 13 15 11 1 2 3 3 8 12 9 13 14 8 8 9 6 1 3 7 8 5 6 5 4 10 7 4 5 4 0 5 7 9 12 15 16 16 15 16 17 17 15 14 15 17 18 18 19 17 16 17 15 12 12 11 13 13 13 13 13 13 13 13 13 14 14 14 14 14 14 13 13 13 13 15 14 14 13 12 13
4 2 3 2 2 6 10 12 1 3 5 1 3 9 15 11 10 8 12 13 14 15 15 10 7 5 8 5 5 3 9 9 14 16 15 12 4 2 4 4 5 7 9 9 8 8 9 12 11 10 10 10 11 8 8 8 7 6 8 11 12 11 12 13 13 14 15 15 14 14 14 14 14 14 14 14 14 13 14 15 14 14 13 13 14 14
5 4 3 2 3 3 5 4 3 6 3 5 1 7 13 4 7 9 5 19 17 15 12 8 10 7 5 4 3 2 3 10 18 17 15 14 11 4 5 4 6 8 7 7 9 8 10 9 10 11 9 6 7 7 9 9 9 10 11 10 11 11 11 12 13 14 14 14 14 14 14 14 14 15 14 14 14 14 14 14 14 15 13 13 13 12
9 4 3 3 2 2 4 6 7 8 7 5 3 9 13 9 12 10 6 10 15 14 13 11 11 12 11 6 7 6 6 6 18 14 16 15 13 10 9 6 10 11 11 9 11 10 9 10 11 10 8 8 7 7 7 7 9 10 9 10 11 11 12 11 12 13 14 14 14 14 14 15 15 15 15 15 15 15 15 14 14 14 12 13 13 13
8 6 3 1 2 1 4 5 5 2 4 2 3 11 7 7 10 9 6 5 14 19 15 12 12 11 12 11 10 8 11 12 13 10 13 14 13 11 11 11 11 13 14 14 13 13 12 11 11 10 11 10 7 5 8 9 10 9 9 10 10 11 12 12 12 12 13 14 14 14 15 15 16 16 15 14 15 15 15 15 13 14 12 14 14 14
9 8 7 4 5 5 3 2 2 1 3 2 16 18 18 9 10 6 4 7 9 16 17 13 15 13 11 11 12 9 1 13 4 7 9 11 11 11 11 11 12 13 12 13 16 15 14 13 13 12 12 11 9 3 3 8 11 10 9 9 10 10 11 12 12 12 12 13 14 15 15 15 15 15 15 15 15 15 15 15 15 14 13 14 13 14
10 7 6 6 7 6 5 3 3 2 3 12 19 17 18 15 7 2 4 5 10 17 16 12 14 14 13 14 11 10 9 15 5 4 8 9 8 8 10 10 10 12 13 13 13 13 13 12 15 15 13 11 7 4 6 6 7 8 10 10 10 11 12 12 12 12 13 14 14 14 14 13 15 15 15 15 15 14 14 14 12 12 12 12 12 12
4 4 6 9 6 7 8 4 1 1 3 11 17 19 18 13 3 5 6 3 11 14 14 12 13 13 12 13 11 8 10 9 7 7 8 8 10 12 11 10 10 9 11 12 12 12 15 14 15 14 12 8 7 8 7 9 10 8 6 5 4 1 2 2 2 4 6 7 9 12 13 13 13 15 15 14 15 14 13 12 12 12 12 13 11 11
2 1 2 1 2 4 5 4 3 3 2 11 19 17 16 2 7 6 3 5 8 11 11 12 13 14 12 13 9 9 8 9 10 9 10 11 10 9 10 10 10 11 10 9 11 13 13 14 13 13 12 10 11 10 9 10 11 8 6 7 6 3 3 3 3 3 5 8 9 10 11 12 12 13 13 13 12 11 12 11 12 11 12 11 10 12
4 1 0 1 3 2 2 2 3 1 3 14 20 9 19 9 6 6 4 5 7 8 10 12 13 13 13 10 10 9 11 12 11 10 10 10 11 11 11 11 11 10 9 10 12 10 12 13 14 13 11 10 11 9 8 10 10 7 6 8 4 3 3 2 2 3 4 7 9 11 12 12 13 12 11 11 12 13 13 12 12 11 11 11 10 11
6 2 2 3 3 3 4 4 1 1 4 11 13 8 7 10 5 6 6 7 6 7 10 10 11 12 13 10 11 11 12 12 12 11 10 10 10 10 10 10 10 9 10 10 9 9 11 13 12 12 11 9 9 8 8 9 8 7 8 6 3 3 3 3 1 1 3 5 7 9 11 12 13 13 12 13 12 12 12 11 11 11 10 10 10 10
8 4 3 2 4 4 2 3 3 2 2 7 7 8 10 13 12 11 6 6 9 10 10 8 11 12 12 13 11 10 11 13 10 9 9 8 8 9 9 8 8 9 9 9 9 8 9 11 13 12 11 9 9 8 8 7 8 7 7 4 3 4 5 5 5 3 0 4 5 7 7 8 10 12 12 12 12 11 10 9 9 9 9 9 9 9
8 9 6 3 6 9 2 3 4 7 5 4 6 7 10 11 10 11 11 7 9 10 10 10 11 12 12 12 11 12 12 11 10 10 10 9 9 9 9 10 10 9 9 8 8 7 7 9 10 11 11 9 7 7 6 6 7 7 3 4 4 4 5 5 6 5 6 1 3 5 6 7 8 8 10 10 9 11 11 11 11 10 9 9 10 9
8 11 6 5 10 6 2 2 6 4 3 2 4 8 8 10 9 9 10 11 10 12 11 14 12 10 11 12 11 10 12 11 10 10 8 9 10 9 9 8 8 7 7 8 5 5 7 7 9 9 9 8 5 5 5 5 5 3 1 2 3 4 5 6 5 5 5 5 2 3 5 7 7 7 7 7 7 8 8 8 9 9 8 9 8 8
6 11 2 8 11 5 5 7 8 7 5 6 4 6 7 9 12 14 13 12 12 12 11 11 13 13 12 12 13 12 11 12 11 11 9 9 9 8 8 8 7 8 7 5 5 5 6 7 7 7 7 7 5 4 5 5 5 4 4 4 3 3 4 4 4 5 6 6 2 2 4 5 7 7 6 6 6 7 7 7 7 7 8 9 9 9
7 7 5 10 6 9 9 3 13 13 5 8 7 6 6 8 9 12 15 16 13 13 15 11 12 10 11 12 13 13 13 14 12 11 11 10 10 10 9 8 7 6 6 7 6 7 7 6 8 7 7 6 4 5 6 6 5 5 6 5 4 4 4 4 4 4 5 5 2 1 2 4 4 6 6 7 8 8 7 3 0 2 4 1 1 7
8 8 9 8 7 4 2 6 12 10 7 3 2 6 9 9 10 12 11 15 15 12 12 11 10 13 10 10 12 11 12 12 12 10 10 9 10 10 10 9 7 7 6 5 6 6 6 6 5 5 5 4 4 6 6 6 5 5 4 5 4 4 5 4 4 4 4 4 1 3 4 5 5 6 7 7 8 8 9 11 11 8 3 1 5 6
7 8 8 6 6 8 10 13 11 10 13 16 15 8 4 7 8 10 10 11 14 12 10 9 8 9 11 13 12 11 11 11 12 10 9 9 9 8 8 8 8 6 5 4 5 5 5 4 4 4 4 3 4 5 5 4 4 5 5 5 4 4 4 3 4 4 4 4 1 3 5 6 6 6 6 6 7 7 8 7 11 16 14 9 7 8
Wind_Direction
145 191 194 201 213 213 212 211 212 235 287 210 177 192 233 236 262 250 250 234 196 181 199 194 204 196 189 184 179 178 177 180 173 177 182 181 182 186 192 195 192 194 195 186 187 188 186 184 181 178 178 180 179 178 178 180 184 184 183 181 187 184 179 180 181 187 185 185 190 198 202 208 206 203 193 191 194 186 188 185 185 186 187 185 181 178
166 206 222 224 219 211 214 205 180 220 238 251 249 215 241 221 242 244 248 257 215 196 218 202 194 205 193 189 182 176 174 182 181 183 185 186 186 188 192 196 198 196 180 179 187 189 186 185 184 180 180 180 180 183 180 183 185 185 184 187 187 181 183 185 186 189 191 194 191 188 196 197 196 196 192 194 194 188 184 184 185 188 188 185 186 179
195 212 223 219 174 180 204 194 189 200 225 235 230 247 271 252 264 292 267 262 252 210 239 180 195 208 200 189 183 176 184 188 185 184 187 184 187 191 193 198 197 187 189 184 189 187 187 185 183 183 183 184 184 183 185 184 182 184 186 188 184 185 185 189 187 189 196 196 196 192 192 191 191 205 198 181 180 179 182 188 187 190 190 185 191 186
200 229 230 186 184 181 208 215 194 203 217 222 226 226 232 241 126 258 259 239 218 195 202 180 197 219 212 189 186 188 185 188 189 189 189 187 187 191 194 194 191 192 191 190 187 188 186 186 183 184 185 186 186 184 184 183 185 185 188 187 186 187 187 188 189 193 198 197 193 195 178 185 180 186 187 171 156 180 180 195 193 193 191 189 190 189
209 5 178 159 177 198 217 212 205 201 222 224 221 224 239 231 228 218 261 330 268 264 226 124 195 267 200 188 204 210 198 187 189 191 195 197 197 194 194 194 195 194 192 191 187 187 186 187 187 186 186 184 187 186 186 186 186 188 188 188 186 185 186 188 189 191 187 185 175 159 121 124 111 77 146 164 193 192 194 191 194 200 189 192 192 189
234 245 141 178 188 196 208 221 214 197 227 235 231 222 227 227 248 250 330 300 320 310 283 136 177 251 222 200 197 186 189 209 195 189 196 198 201 198 192 198 199 204 201 193 189 188 188 189 185 185 184 187 189 189 188 188 189 188 188 186 185 185 186 188 189 186 181 187 179 165 162 166 183 193 185 198 204 195 193 201 192 191 191 190 192 190
229 201 188 183 192 199 204 217 217 194 224 223 235 216 220 233 245 228 286 351 268 237 273 170 193 258 244 211 205 186 192 201 191 199 200 198 198 194 198 198 197 198 200 205 204 193 186 187 186 187 188 190 190 191 186 188 189 188 186 186 184 185 187 187 186 184 183 187 187 186 187 187 190 195 205 208 207 198 195 172 182 192 191 192 188 191
191 197 189 211 191 197 203 216 210 194 200 229 228 205 207 231 247 221 213 229 252 275 279 285 188 199 234 233 213 190 193 197 198 202 203 202 199 199 199 198 197 198 198 196 197 195 192 188 189 189 190 189 192 187 184 187 187 187 186 184 185 186 187 187 184 184 186 188 190 193 196 196 197 198 202 199 202 182 163 179 188 182 194 193 192 187
185 202 193 199 204 200 207 211 194 193 204 237 122 190 198 223 242 217 195 233 250 303 276 282 237 265 243 229 207 192 195 200 203 204 204 203 202 202 201 199 198 198 197 197 196 196 193 191 193 192 190 193 188 184 186 187 187 187 186 185 185 186 186 186 185 186 190 191 193 195 196 199 204 201 203 189 183 177 173 176 178 184 190 191 194 189
215 206 189 199 204 215 216 214 195 194 221 231 131 179 219 235 247 164 190 201 243 210 258 257 188 240 268 251 196 195 202 199 207 208 207 202 200 201 202 203 200 197 198 199 202 199 197 194 193 192 190 185 189 187 186 186 185 185 183 184 184 188 188 186 186 188 191 193 191 195 199 200 200 196 182 165 186 189 176 183 185 184 182 187 187 189
239 173 176 194 215 211 192 218 200 203 224 90 167 201 232 233 246 181 188 187 250 242 242 249 224 192 258 246 184 185 206 202 205 215 213 206 205 205 205 202 199 196 197 199 201 202 201 199 195 187 185 188 187 186 185 185 185 184 183 183 185 190 188 186 188 188 192 193 192 197 199 201 199 193 181 177 191 184 182 191 188 184 188 178 188 182
231 264 192 204 201 207 168 215 209 212 214 201 181 208 310 295 1 106 216 151 219 244 242 242 231 190 239 272 233 199 201 202 203 206 204 201 202 203 204 204 202 198 197 199 199 201 199 196 195 189 192 187 186 183 186 188 185 184 184 183 187 189 189 188 188 189 192 191 195 197 198 201 202 191 189 192 195 191 195 196 191 184 167 183 180 183
226 221 227 253 197 196 185 208 209 207 206 203 196 170 198 249 156 245 127 216 217 220 252 233 194 242 235 225 191 206 207 210 209 205 201 199 201 200 201 201 200 198 199 198 200 199 193 193 193 193 193 187 186 187 186 187 185 184 184 184 186 189 189 189 187 191 191 192 196 196 197 202 199 197 198 197 199 196 197 194 188 175 189 178 178 189
229 213 220 228 239 203 192 196 182 203 201 197 199 182 184 202 211 226 223 334 273 264 249 252 161 240 152 253 196 190 205 212 213 214 209 200 199 197 197 198 198 199 197 198 199 197 194 195 195 193 190 190 190 188 187 186 185 184 186 186 187 191 189 188 187 190 191 196 197 195 197 198 196 199 199 200 201 199 199 194 196 193 191 186 193 190
205 207 221 197 214 176 202 206 187 184 184 201 197 178 203 201 191 208 192 209 210 195 234 224 173 230 175 243 188 193 195 207 212 215 214 206 203 200 195 192 195 196 196 197 197 197 198 197 193 191 191 190 189 189 187 187 186 184 186 186 189 190 190 187 188 188 193 197 198 197 197 195 196 201 200 204 202 199 196 198 197 199 192 192 198 197
257 249 219 204 223 171 207 205 179 164 188 202 193 190 185 217 123 191 202 151 194 205 252 238 201 186 192 244 236 191 191 199 205 214 216 213 213 206 193 193 197 198 196 194 196 199 201 197 191 192 192 191 190 188 187 188 186 186 188 187 189 189 188 189 188 190 193 196 196 197 195 196 197 199 199 203 203 205 201 198 196 196 196 200 194 196
340 260 52 345 252 192 206 191 197 165 205 183 180 207 212 92 148 215 279 244 103 118 235 113 279 285 308 321 234 194 187 194 194 204 206 208 206 193 194 196 198 198 195 193 195 197 198 192 191 193 192 190 189 188 190 189 188 188 187 188 191 191 188 189 189 190 192 193 194 197 197 196 197 197 198 200 202 203 200 198 200 196 199 194 190 188
5 283 296 277 298 254 213 195 197 196 153 119 197 210 92 133 135 182 214 221 204 207 247 203 212 207 170 241 271 176 189 198 189 196 199 200 195 190 198 197 197 197 195 195 197 196 192 189 190 191 191 190 190 191 191 190 188 188 187 188 189 189 189 192 190 192 192 191 193 195 197 197 196 198 201 201 201 199 195 201 202 200 191 198 194 187
340 306 289 236 226 286 295 214 220 211 194 210 222 115 172 164 206 203 141 224 214 221 262 291 224 222 195 234 196 202 200 198 188 194 200 199 189 195 197 199 198 197 195 197 200 197 192 192 191 191 193 193 192 191 191 189 186 187 189 190 189 190 191 188 190 192 193 191 192 194 196 195 196 198 200 200 196 190 198 203 201 201 203 195 189 186
313 289 299 306 36 326 302 209 212 211 209 213 111 175 171 161 216 174 204 164 122 248 171 271 149 224 214 213 184 195 200 200 177 190 201 202 194 194 197 198 197 196 196 198 197 193 192 192 191 191 192 191 192 191 189 186 186 189 190 189 192 193 189 187 189 190 192 193 193 194 193 197 198 198 199 198 193 195 200 203 200 203 198 198 188 194
311 11 292 295 328 329 253 196 209 197 194 206 198 196 189 210 222 177 262 161 196 184 193 191 252 261 254 221 186 195 198 200 174 184 198 205 202 196 195 196 195 196 196 196 195 194 193 193 192 193 193 193 190 188 184 185 188 190 188 191 190 188 187 188 190 189 193 189 194 192 193 194 195 199 199 198 199 202 204 203 202 202 204 178 194 189
291 34 298 303 326 305 259 265 34 341 307 238 209 211 201 184 144 185 234 89 123 147 217 170 255 273 263 208 200 200 206 202 190 177 191 200 202 201 198 199 194 194 198 196 195 194 191 191 190 191 191 186 182 183 186 189 189 189 190 190 189 188 188 188 189 190 190 190 193 194 194 195 195 197 196 198 201 206 205 203 203 201 186 195 197 187
298 271 285 292 256 270 269 271 294 294 276 263 263 232 202 183 143 178 211 234 175 221 136 161 255 260 233 198 194 196 205 209 199 176 192 197 199 201 200 200 197 194 194 195 195 192 190 188 187 187 183 183 186 187 187 186 188 190 189 188 189 189 190 189 189 189 187 188 191 196 196 194 195 194 196 199 202 206 205 205 203 192 196 201 197 195
318 298 302 289 295 264 262 257 256 241 238 287 266 244 201 204 199 213 203 177 184 211 225 267 267 266 280 221 216 215 215 215 213 176 190 199 203 203 200 197 196 196 199 195 193 189 188 185 183 182 182 184 187 186 186 188 188 187 189 189 188 191 190 189 189 188 187 190 193 193 193 195 195 194 196 201 204 205 205 203 201 195 202 203 199 200
335 325 41 317 337 319 293 293 236 55 66 16 332 297 227 215 208 209 90 150 196 203 200 188 239 260 263 29 261 320 281 241 225 198 196 195 202 205 208 194 189 194 195 195 191 189 183 178 177 181 184 185 186 186 187 187 187 187 188 188 189 192 190 189 188 188 190 191 193 193 194 196 194 196 198 202 202 204 202 202 200 198 203 201 204 207
276 294 42 332 296 230 208 209 210 350 334 302 254 304 305 230 203 158 194 195 209 239 179 204 240 256 271 272 281 276 283 271 248 212 205 200 195 201 203 183 189 194 193 188 188 179 177 179 180 184 185 185 186 185 186 186 187 188 188 190 190 189 188 189 187 190 190 192 193 193 195 197 196 199 200 201 203 204 202 201 201 201 204 202 206 207
238 249 213 221 225 249 286 309 273 311 317 294 301 313 294 303 267 195 115 157 208 198 189 223 214 257 271 270 268 260 195 261 256 205 207 210 208 199 187 180 186 190 189 186 181 179 178 177 182 183 185 186 186 185 184 184 186 187 188 189 189 188 186 187 187 189 191 191 194 194 197 197 198 198 199 200 202 202 202 203 203 203 205 203 207 207
261 312 252 242 246 255 267 272 285 293 280 275 272 278 283 284 282 228 187 212 148 120 225 246 203 216 250 255 258 263 271 286 264 219 210 203 196 186 185 182 185 185 186 183 177 174 177 182 182 183 186 186 186 183 182 185 187 187 187 188 188 187 186 186 188 189 191 191 195 197 198 198 198 198 199 200 200 202 203 204 205 206 207 203 208 211
249 234 279 275 267 271 273 278 279 275 255 262 264 263 274 274 276 251 215 182 147 200 214 231 195 210 245 246 249 256 232 247 240 218 207 198 186 181 177 179 180 183 179 175 178 178 181 180 181 183 185 186 181 179 180 184 188 188 189 190 189 187 189 185 186 189 191 192 196 198 197 196 197 198 198 198 198 201 204 204 206 208 207 207 210 212
277 245 261 270 289 285 274 262 258 252 258 255 253 250 255 260 257 254 236 169 184 203 201 201 195 218 233 242 253 278 278 249 240 232 292 225 178 174 175 179 181 180 177 178 179 182 183 183 182 183 182 179 178 180 181 185 188 189 190 190 188 190 188 182 188 189 191 194 197 196 195 194 194 195 195 196 199 201 201 203 205 207 210 210 211 212
304 259 312 326 308 291 281 272 259 277 279 283 293 320 298 271 234 239 231 199 187 235 251 220 208 236 251 236 278 290 311 297 284 148 209 193 178 172 178 181 181 179 177 180 181 183 185 183 183 180 178 178 180 181 184 188 189 189 190 190 189 189 185 182 185 188 189 196 197 194 192 192 195 193 196 199 200 199 198 201 203 208 211 212 212 212
302 271 340 2 341 296 299 318 325 322 293 260 295 351 341 335 275 209 186 316 180 191 238 258 233 250 271 271 149 14 42 29 348 332 271 235 182 174 176 179 178 179 180 183 184 182 178 178 176 178 181 182 183 184 187 188 188 188 194 190 189 185 180 183 185 187 190 198 191 190 190 192 191 194 199 198 202 200 199 199 202 207 210 212 212 214
224 268 353 338 314 259 276 321 317 308 314 358 360 4 326 340 99 90 58 36 25 213 146 190 238 235 267 299 43 36 66 42 22 3 322 292 248 180 178 179 179 180 183 182 180 178 176 177 179 180 183 182 185 187 190 187 185 192 191 188 186 176 181 184 184 184 191 193 190 189 188 190 191 196 198 199 200 200 198 199 203 207 209 212 213 212
239 258 241 25 256 280 312 311 306 314 161 226 205 42 356 13 41 61 38 20 2 34 211 230 254 286 335 11 349 101 78 65 66 24 27 268 214 215 193 184 179 180 181 181 178 177 179 179 180 181 182 183 187 190 188 185 190 190 183 179 176 181 181 180 181 182 189 191 191 190 190 191 192 196 199 198 199 198 198 200 205 206 207 210 210 213
246 265 281 198 263 286 305 314 133 147 200 138 128 46 3 339 21 53 57 33 16 15 13 5 353 16 37 34 29 3 99 97 62 45 24 14 36 108 156 151 168 173 171 166 166 170 168 169 165 162 171 186 186 176 167 180 179 157 170 180 183 181 178 181 181 184 190 193 192 191 192 190 193 197 199 199 198 198 201 202 206 205 206 207 210 212
231 224 254 243 227 302 298 320 178 190 277 321 54 18 4 355 33 343 39 20 19 13 3 356 340 344 353 356 12 311 357 71 63 41 24 20 17 53 85 95 112 116 124 136 137 137 138 141 150 155 160 142 144 163 174 173 164 167 180 179 181 181 182 180 184 188 191 194 192 192 192 191 193 197 198 198 198 198 202 203 203 205 204 208 213 214
224 248 273 292 203 197 293 300 246 328 341 18 352 1 357 343 331 350 6 21 9 5 1 354 352 356 353 332 320 284 282 10 57 28 13 15 14 27 65 74 96 100 99 97 105 109 113 116 115 120 120 128 137 143 163 156 168 176 174 181 186 186 189 186 186 190 192 194 193 193 193 193 194 197 199 197 197 199 202 204 205 207 203 208 212 212
207 207 201 163 275 130 338 320 325 71 183 264 322 298 312 296 290 282 259 21 4 359 353 356 12 355 356 348 331 311 287 58 38 18 356 6 11 25 48 67 80 89 96 99 96 96 99 102 103 107 116 117 117 149 167 166 172 173 180 187 188 189 196 197 197 191 190 194 194 194 195 195 195 197 199 197 198 200 203 205 205 205 201 205 209 212
209 216 241 264 281 338 301 261 258 262 248 1 324 316 311 309 283 310 216 54 3 350 344 347 21 11 7 1 346 343 159 71 36 19 349 357 11 17 41 51 66 76 83 92 101 102 98 97 100 99 92 90 84 63 128 169 167 171 183 186 192 195 201 204 203 198 194 194 196 198 197 196 196 198 198 198 200 200 202 203 204 205 200 206 209 214
208 213 214 229 243 227 257 271 272 230 291 328 319 316 308 302 318 246 109 62 353 336 331 341 26 23 17 19 4 22 58 107 84 19 355 355 7 19 37 42 54 72 79 85 82 92 97 99 89 77 76 76 76 80 84 116 150 167 180 189 193 199 205 207 205 205 202 198 197 197 198 196 197 199 199 200 202 201 204 205 205 203 202 206 208 212
206 222 176 216 223 234 230 247 310 343 294 324 319 311 309 302 258 79 80 336 331 330 327 356 20 25 26 25 15 36 39 50 62 46 20 10 24 26 30 38 46 54 74 80 89 91 86 80 82 85 82 80 74 66 71 87 88 81 74 81 91 68 341 300 254 223 207 201 198 200 200 199 197 199 202 202 201 201 203 201 202 202 201 205 205 209
197 207 229 186 233 214 206 172 193 202 240 325 328 319 319 302 54 63 52 341 318 331 331 5 17 16 27 33 22 35 37 45 49 42 33 26 32 30 32 35 42 51 55 70 79 84 90 88 86 84 75 69 67 64 66 73 78 79 76 71 56 2 308 304 272 240 213 194 193 195 200 202 203 202 202 203 200 200 204 204 203 201 202 202 202 206
345 269 330 310 285 261 347 76 57 334 328 350 319 336 11 54 38 15 337 339 328 335 348 5 16 15 15 27 17 22 26 32 32 30 31 25 27 29 26 30 36 40 44 54 64 64 84 84 79 76 76 66 63 61 64 74 75 73 63 54 14 325 304 283 260 256 215 208 195 193 195 199 200 201 204 204 200 199 203 199 199 200 196 198 202 205
336 58 23 340 354 341 12 46 119 33 321 347 360 47 11 44 34 21 360 332 347 356 359 357 4 12 12 14 18 18 27 25 23 17 25 25 22 24 29 29 32 34 41 46 57 63 73 82 80 78 71 68 66 63 63 72 73 64 56 34 333 336 337 340 332 213 204 207 206 201 197 195 197 200 202 203 202 201 199 196 197 196 195 195 197 200
356 9 12 314 8 14 14 27 340 195 27 28 18 28 17 9 9 0 346 6 353 356 348 355 354 355 11 8 14 22 24 19 15 12 22 11 14 18 24 25 30 33 37 43 46 49 61 78 84 81 73 67 69 67 63 61 67 57 42 357 349 4 2 346 339 353 134 195 212 204 205 200 199 199 198 199 198 201 200 195 186 194 198 192 198 200
21 9 26 22 346 314 217 148 58 29 17 22 36 32 22 2 2 358 338 351 5 356 359 355 345 348 360 12 14 15 22 11 10 6 13 13 14 8 12 19 23 28 35 42 45 48 60 68 74 77 77 67 66 70 70 66 67 59 4 335 359 5 2 360 353 349 342 332 199 213 197 195 203 202 200 194 192 197 197 193 189 194 193 193 198 199
42 4 27 27 323 337 207 77 54 29 320 329 33 38 35 6 352 346 340 349 351 355 353 354 349 343 353 6 13 3 5 6 5 5 10 17 16 10 3 9 17 24 31 35 31 53 59 67 71 74 76 74 61 72 72 75 71 92 83 30 2 6 359 1 0 343 336 331 286 208 201 195 192 187 183 180 183 190 193 193 194 196 191 192 195 197
8 357 56 360 324 283 306 332 348 330 244 144 111 49 36 12 348 350 345 342 346 348 344 345 348 353 349 3 1 0 356 357 1 358 6 12 13 9 4 357 2 15 20 33 34 50 62 67 73 74 73 67 56 62 62 55 40 26 17 16 16 13 15 10 1 343 324 317 292 195 199 202 189 167 160 161 163 171 177 184 188 191 192 190 191 190
336 354 8 331 292 286 281 329 357 346 122 141 101 91 51 19 351 350 344 336 345 344 335 340 352 351 353 348 355 358 355 354 354 349 0 2 5 5 359 354 349 360 12 25 25 41 50 54 56 57 61 54 45 51 48 40 26 15 13 360 1 7 20 6 348 342 317 312 320 178 151 161 158 147 134 102 60 48 35 8 334 212 168 58 189 196
353 13 340 324 317 303 6 348 4 344 309 231 189 33 9 14 355 338 340 330 329 336 332 327 354 342 352 354 353 355 349 340 346 349 351 359 356 349 352 354 356 359 6 12 37 41 47 50 66 62 58 46 43 47 40 33 14 4 360 356 355 3 12 356 346 342 322 309 237 150 134 128 126 129 131 129 121 104 78 64 67 37 32 81 353 18
352 337 333 321 311 294 313 314 303 281 271 268 279 294 329 343 339 324 317 312 307 315 319 318 351 352 346 347 345 350 341 329 326 341 346 352 347 339 336 351 356 359 358 12 40 30 47 45 62 75 63 49 56 50 42 28 7 358 350 350 349 349 351 359 347 330 319 340 322 162 142 136 130 126 119 122 123 118 117 103 50 44 44 49 50 57